Home   Weather   Itabuna   Past weeks
Flag for Brazil

Past Weather in Itabuna, Bahia, Brazil — Yesterday and Last 2 Weeks

Now
84 °F

Scattered clouds.


Feels Like: 91 °F
Forecast: 88 / 70 °F
Wind: 17 mph from East

Location: Salvador Aeroporto

Current Time: Oct 21, 2019 at 12:33:48 pm

Latest Report: Oct 21, 2019 at 12:00 pm


Visibility: N/A

Pressure: 29.89 "Hg

Humidity: 70%

Dew Point: 73 °F

Location of ItabunaLocation

Past Weather in Itabuna — Graph

°F

Itabuna Temperature Yesterday

Maximum temperature yesterday: 84 °F (at 10:00 am)
Minimum temperature yesterday: 73 °F (at 3:00 am)
Average temperature yesterday: 80 °F

High & Low Weather Summary for the Past Weeks

 TemperatureHumidityPressure
High84 °F (Oct 8, 12:00 pm)89% (Oct 6, 10:00 pm)30.09 "Hg (Oct 6, 10:00 pm)
Low73 °F (Oct 7, 8:10 am)58% (Oct 9, 2:00 pm)29.80 "Hg (Oct 20, 3:00 pm)
Average80 °F75%29.99 "Hg
* Reported Oct 6 11:00 am — Oct 21 11:00 am, Itabuna. Weather by CustomWeather, © 2019

Note: Actual official high and low records may vary slightly from our data, if they occured in-between our weather recording intervals... More about our weather records

Advertising

Itabuna Weather History for the Previous 24 Hours

Scroll right to see more
 ConditionsComfort  
Time TempWeatherWind HumidityBarometerVisibility
11:00 am
Mon, Oct 21
84 °FScattered clouds.17 mph66%29.92 "HgN/A
10:00 am84 °FScattered clouds.15 mph70%29.92 "HgN/A
9:00 am82 °FScattered clouds.10 mph74%29.92 "HgN/A
8:00 am82 °FScattered clouds.7 mph74%29.92 "HgN/A
7:00 am79 °FPassing clouds.6 mph89%29.92 "HgN/A
6:00 am77 °FPassing clouds.3 mph89%29.89 "HgN/A
5:00 am77 °FPassing clouds.2 mph89%29.89 "HgN/A
4:00 am79 °FPassing clouds.7 mph84%29.86 "HgN/A
3:00 am79 °FPassing clouds.9 mph84%29.86 "HgN/A
2:00 am79 °FPassing clouds.12 mph84%29.86 "HgN/A
1:00 am79 °FPassing clouds.13 mph89%29.86 "HgN/A
12:00 am79 °FPassing clouds.13 mph84%29.89 "HgN/A
11:00 pm
Sun, Oct 20
79 °FPassing clouds.15 mph89%29.89 "HgN/A
10:00 pm81 °FPassing clouds.16 mph84%29.92 "HgN/A
9:00 pm81 °FPassing clouds.15 mph84%29.89 "HgN/A
8:00 pm81 °FPassing clouds.15 mph84%29.89 "HgN/A
7:00 pm81 °FPassing clouds.15 mph84%29.86 "HgN/A
6:00 pm81 °FPassing clouds.15 mph84%29.86 "HgN/A
5:00 pm82 °FScattered clouds.14 mph79%29.83 "HgN/A
4:00 pm82 °FPassing clouds.15 mph79%29.83 "HgN/A
3:00 pm84 °FPassing clouds.16 mph74%29.80 "HgN/A
2:00 pm84 °FPassing clouds.17 mph74%29.83 "HgN/A
1:00 pm84 °FPassing clouds.17 mph70%29.83 "HgN/A
12:00 pm84 °FPassing clouds.16 mph74%29.86 "HgN/A
Weather by CustomWeather, © 2019

See weather overview